Weather History for Gainesville, FL

Change the Weather History Date:

Thursday, February 7, 2013

  Actual Average Record
Temperature  
Mean Temperature 67 °F 56 °F  
Max Temperature 78 °F 68 °F 86 °F (1957)
Min Temperature 55 °F 44 °F 25 °F (1912)
Degree Days  
Heating Degree Days 0 9  
Month to date heating degree days 68 68  
Since 1 July heating degree days 612 870  
Cooling Degree Days 2 1  
Month to date cooling degree days 2 3  
Year to date cooling degree days 62 15  
Growing Degree Days 15 (Base 50)    
Moisture  
Dew Point 60 °F    
Average Humidity 79    
Maximum Humidity 100    
Minimum Humidity 58    
Precipitation  
Precipitation 0.27 in 0.10 in 1.74 in (1955)
Month to date precipitation 0.29 0.76  
Year to date precipitation 0.62 4.07  
Snow  
Snow 0.00 in 0.00 in 0.00 in ()
Month to date snowfall 0.0 0.0  
Since 1 July snowfall 0.0 0.0  
Snow Depth 0.00 in    
Sea Level Pressure  
Sea Level Pressure 29.98 in    
Wind  
Wind Speed 7 mph (South)    
Max Wind Speed 23 mph    
Max Gust Speed 31 mph    
Visibility 8 miles    
Events Rain    
T = Trace of Precipitation, MM = Missing Value Source: NWS Daily Summary

Daily Weather History Graph

Daily Weather History Graph

Search for Another Location

Airport:

Trip Planner

Search our weather history database for the weather conditions in past years. The results will help you decide how hot, cold, wet, or windy it might be!

Date:

Astronomy

Feb. 07, 2013 Rise Set
Actual Time 7:14 AM EST 6:12 PM EST
Civil Twilight 6:50 AM EST 6:36 PM EST
Nautical Twilight 6:21 AM EST 7:05 PM EST
Astronomical Twilight 5:53 AM EST 7:33 PM EST
Moon 4:46 AM EST (2/7) 3:41 PM EST (2/7)
Length of Visible Light 11h 46m
Length of Day
10h 57m
Waning Crescent, 9% of the Moon is Illuminated
Feb 7
Waning Crescent
Feb 10
New
Feb 17
First Quarter
Feb 25
Full
Mar 4
Last Quarter

Hourly Weather History & Observations

Time (EST) Temp. Dew Point Humidity Pressure Visibility Wind Dir Wind Speed Gust Speed Precip Events Conditions
12:53 AM 60.1 °F 55.9 °F 86% 30.10 in 10.0 mi East 4.6 mph - N/A   Mostly Cloudy
1:53 AM 61.0 °F 57.0 °F 87% 30.09 in 10.0 mi East 3.5 mph - N/A   Overcast
2:53 AM 57.9 °F 55.9 °F 93% 30.07 in 10.0 mi Calm Calm - N/A   Clear
3:19 AM 57.2 °F 55.4 °F 94% 30.06 in 1.8 mi Calm Calm - N/A   Clear
3:37 AM 55.4 °F 55.4 °F 100% 30.06 in 3.0 mi Calm Calm - N/A   Clear
3:49 AM 55.4 °F 53.6 °F 94% 30.07 in 2.0 mi Calm Calm - N/A   Clear
3:53 AM 57.0 °F 55.0 °F 93% 30.07 in 4.0 mi Calm Calm - N/A   Clear
4:12 AM 57.2 °F 55.4 °F 94% 30.07 in 1.8 mi Calm Calm - N/A   Clear
4:30 AM 57.2 °F 55.4 °F 94% 30.07 in 0.8 mi Calm Calm - N/A   Partly Cloudy
4:46 AM 55.4 °F 55.4 °F 100% 30.07 in 1.8 mi Calm Calm - N/A   Mostly Cloudy
4:49 AM 55.4 °F 55.4 °F 100% 30.07 in 3.0 mi Calm Calm - N/A   Mostly Cloudy
4:53 AM 55.9 °F 55.0 °F 97% 30.07 in 5.0 mi Calm Calm - N/A   Mostly Cloudy
5:53 AM 57.9 °F 55.9 °F 93% 30.07 in 10.0 mi Calm Calm - N/A   Overcast
6:53 AM 57.9 °F 55.9 °F 93% 30.06 in 9.0 mi ESE 3.5 mph - N/A   Clear
7:53 AM 60.1 °F 59.0 °F 96% 30.06 in 8.0 mi Calm Calm - N/A   Mostly Cloudy
8:53 AM 64.0 °F 60.1 °F 87% 30.06 in 10.0 mi SSE 8.1 mph - N/A   Partly Cloudy
9:53 AM 69.1 °F 61.0 °F 75% 30.05 in 10.0 mi SSE 9.2 mph - N/A   Scattered Clouds
10:53 AM 73.0 °F 62.1 °F 68% 30.02 in 10.0 mi SSE 10.4 mph - N/A   Clear
11:53 AM 75.0 °F 61.0 °F 62% 30.00 in 10.0 mi SSE 15.0 mph 21.9 mph N/A   Scattered Clouds
12:53 PM 75.0 °F 60.1 °F 60% 29.96 in 10.0 mi SSE 13.8 mph 21.9 mph N/A   Mostly Cloudy
1:53 PM 75.9 °F 59.0 °F 56% 29.91 in 10.0 mi SSE 9.2 mph - N/A   Mostly Cloudy
2:53 PM 70.0 °F 64.0 °F 81% 29.92 in 10.0 mi Calm Calm - 0.01 in Rain Light Rain
3:53 PM 68.0 °F 64.9 °F 90% 29.90 in 10.0 mi South 4.6 mph - 0.12 in Rain Light Rain
4:53 PM 66.9 °F 64.9 °F 93% 29.89 in 3.0 mi South 5.8 mph - 0.09 in Rain Rain
5:53 PM 66.9 °F 64.9 °F 93% 29.89 in 5.0 mi SSW 16.1 mph - 0.03 in Rain Light Rain
6:53 PM 66.0 °F 63.0 °F 90% 29.87 in 10.0 mi South 9.2 mph 16.1 mph 0.02 in   Mostly Cloudy
7:53 PM 66.0 °F 63.0 °F 90% 29.87 in 10.0 mi SSW 8.1 mph - N/A   Mostly Cloudy
8:02 PM 66.2 °F 62.6 °F 88% 29.87 in 10.0 mi SSW 9.2 mph - N/A   Mostly Cloudy
8:53 PM 66.0 °F 63.0 °F 90% 29.86 in 10.0 mi SSW 9.2 mph - N/A   Mostly Cloudy
9:16 PM 66.2 °F 62.6 °F 88% 29.87 in 10.0 mi SW 10.4 mph - N/A   Mostly Cloudy
9:53 PM 68.0 °F 64.9 °F 90% 29.87 in 10.0 mi SW 10.4 mph - N/A   Overcast
10:13 PM 69.8 °F 64.4 °F 83% 29.88 in 10.0 mi SW 13.8 mph - N/A   Overcast
10:53 PM 68.0 °F 64.0 °F 87% 29.88 in 10.0 mi WSW 17.3 mph - 0.00 in Rain Light Rain
11:13 PM 68.0 °F 62.6 °F 83% 29.88 in 10.0 mi North - - 0.00 in   Overcast
11:26 PM 68.0 °F 62.6 °F 83% 29.88 in 10.0 mi North - - 0.00 in   Overcast
11:53 PM 66.9 °F 63.0 °F 87% 29.88 in 10.0 mi North - - 0.00 in   Overcast